[[{"header":{"parameterUnit":"m.s-1","parameterCategory":1,"la1":30.2991,"la2":30.254,"lo1":-89.0895,"lo2":-89.0444,"dy":0.0017,"dx":0.0017,"nx":28,"ny":28,"refTime":"2024-07-20T21:00:00:Z","depth":0,"parameterNumber":2,"parameterNumberName":"U-component_of_WINDS"},"data":[0,0,0,0,0,0,0,0,0,0,0,0,0,0,0,0,0,0,0,0,0,0,0,0,0,0,0,0,0,0,0,0,0,0,0,0,0,0,0,0,0,0,0,0,0,0,0,0,0,0,0,0,0,0,0,0,0,0,3.6322,3.6323,0,3.6392,3.6393,3.6394,3.6313,3.631,3.6307,3.6305,3.6378,3.6383,3.6387,0,0,0,0,0,0,0,0,0,0,0,0,0,3.6116,3.612,3.6322,3.6323,3.6324,3.6392,3.6393,3.6394,3.6314,3.631,3.6307,3.6303,3.6376,3.6382,3.6388,0,0,0,0,0,0,0,0,0,0,0,0,0,3.6198,3.6122,3.6322,3.6292,3.629,3.6392,3.6393,3.6394,3.6315,3.631,3.6306,3.6301,3.6374,3.6381,3.6388,3.6524,0,0,3.641,3.6413,0,0,0,0,0,0,0,0,3.6193,3.6206,3.6295,3.6294,3.6292,3.6339,3.6347,3.6438,3.6316,3.6305,3.6304,3.6299,3.6369,3.6376,3.6399,3.6527,3.653,3.6411,3.6415,3.6418,3.642,0,0,0,0,0,0,0,3.6188,3.6202,3.635,3.6297,3.6295,3.6274,3.6281,3.6364,3.6362,3.6306,3.63,3.631,3.6367,3.6393,3.64,3.6531,3.6411,3.6417,3.6422,3.6424,3.6768,3.6773,0,0,0,0,0,0,3.6186,3.6198,3.6347,3.6352,3.623,3.6282,3.6289,3.6329,3.6361,3.6361,3.6313,3.6306,3.6383,3.6392,3.6403,3.6559,3.6418,3.6425,3.6429,3.6763,3.6769,3.6774,0,0,0,0,0,0,3.6182,3.62,3.6344,3.6273,3.629,3.629,3.6335,3.6333,3.6358,3.6366,3.6365,3.634,3.6379,3.6393,3.6493,3.6561,3.6428,3.6435,3.6758,3.6765,3.6772,3.6876,0,0,0,0,0,0,3.6176,3.6199,3.6251,3.6275,3.6294,3.6434,3.634,3.6337,3.637,3.6361,3.6391,3.6392,3.6377,3.6483,3.65,3.6568,3.644,3.6751,3.6761,3.6769,3.6867,3.6886,3.6903,0,0,0,0,0,3.6169,3.6279,3.6254,3.6272,3.6359,3.6439,3.6449,3.643,3.6376,3.6428,3.6432,3.6391,3.6551,3.6494,3.6513,3.6584,3.6747,3.6758,3.6769,3.6858,3.6882,3.6902,0,0,0,0,0,0,3.6264,3.6282,3.6254,3.6375,3.6406,3.6425,3.649,3.6456,3.6503,3.6492,3.6466,3.6474,3.6579,3.6592,3.6528,3.6714,3.664,3.6655,3.6702,3.6724,3.6742,3.6736,3.6446,0,0,0,0,0,3.6299,3.6362,3.6374,3.648,3.6496,3.649,3.6524,3.6506,3.6537,3.655,3.6562,3.6593,3.665,3.6688,3.6742,3.6868,3.6872,3.6926,3.6945,3.6959,3.6972,3.7036,3.7059,3.681,3.681,3.681,0,0,3.6372,3.639,3.6431,3.6499,3.6521,3.6585,3.6502,3.6575,3.6622,3.6561,3.6655,3.6665,3.6698,3.6811,3.6861,3.6825,3.7042,3.6973,3.6985,3.699,3.7049,3.7073,3.7094,3.6817,3.6816,3.6815,0,0,3.6538,3.6559,3.6647,3.6669,3.6702,3.6697,3.6718,3.6741,3.6745,3.6839,3.6793,3.6848,3.6948,3.6972,3.6998,3.7168,3.713,3.7186,3.728,3.7343,3.7362,3.7379,3.7437,3.7458,3.72,3.72,3.72,0,3.6625,3.672,3.6696,3.6771,3.6801,3.6747,3.6834,3.6858,3.6907,3.6928,3.6886,3.7007,3.7026,3.7141,3.7182,3.7206,3.7227,3.7182,3.7361,3.7378,3.7394,3.7448,3.747,3.7206,3.7205,3.7205,3.7204,0,3.6823,3.689,3.6957,3.7003,3.7041,3.7122,3.7109,3.715,3.7128,3.7126,3.7221,3.7241,3.7295,3.7322,3.7302,3.7434,3.7409,3.7365,3.729,3.7424,3.7475,3.7496,3.7215,3.7213,3.7211,3.7209,0,0,3.7052,3.7081,3.7106,3.7125,3.7155,3.7206,3.7283,3.7335,3.7369,3.7404,3.7466,3.755,3.7508,3.7537,3.7519,3.7574,3.7703,3.7522,3.7522,3.7552,3.7845,3.7876,3.79,3.7678,3.7682,3.7685,3.784,0,3.7215,3.7348,3.7327,3.7456,3.7515,3.7463,3.7529,3.7555,3.7555,3.7605,3.7605,3.7663,3.7605,3.7621,3.7674,3.7676,3.7761,3.7665,3.7734,3.7737,3.7725,3.7927,3.7962,3.8107,3.786,3.7864,3.7866,0,3.7424,3.7464,3.7597,3.7614,3.7638,3.7699,3.7742,3.7791,3.7818,3.7814,3.7844,3.7815,3.789,3.7815,3.7916,3.7852,3.7878,3.7884,3.7889,3.7893,3.7808,3.7934,3.8154,3.8174,3.7898,3.7895,3.7893,0,3.7573,3.7661,3.775,3.7768,3.7792,3.7834,3.7846,3.7868,3.7899,3.7937,3.7956,3.8004,3.8029,3.8065,3.8049,3.7996,3.8153,3.8077,3.8149,3.815,3.8183,3.8181,3.8407,3.8206,3.8205,3.8205,3.8204,0,3.7756,3.7839,3.7817,3.7872,3.7962,3.7937,3.8027,3.8032,3.8051,3.8105,3.8064,3.8116,3.8092,3.8142,3.813,3.8213,3.8226,3.8224,3.8219,3.8226,3.8226,3.8242,3.823,3.8211,3.8209,3.8208,3.8207,0,3.7938,3.7927,3.802,3.8033,3.8038,3.8104,3.8115,3.8165,3.8161,3.823,3.8245,3.8239,3.8294,3.8281,3.8344,3.8335,3.8439,3.8424,3.843,3.8425,3.8497,3.8489,3.874,3.877,3.8551,3.8553,3.8555,0,3.8054,3.8116,3.8135,3.8167,3.8181,3.8235,3.8265,3.8242,3.8275,3.8307,3.8354,3.8405,3.8445,3.8536,3.8537,3.8583,3.8566,3.8651,3.8573,3.8576,3.8563,3.8559,3.8563,3.8666,3.8668,3.867,3.8672,0,3.8261,3.8251,3.8296,3.8338,3.8375,3.8408,3.8437,3.8466,3.8444,3.8483,3.8538,3.8569,3.863,3.8681,3.8723,3.8734,3.8699,3.8696,3.8715,3.8721,3.8721,3.8718,3.8469,3.869,3.8689,3.8687,3.8686,3.8685,3.8411,3.8462,3.8481,3.8532,3.855,3.8577,3.8624,3.8624,3.867,3.8717,3.87,3.8763,3.8784,3.8836,3.8852,3.8899,3.8867,3.8896,3.8902,3.8909,3.8916,3.8715,3.8907,3.8907,3.8906,3.8906,3.8906,0,3.8612,3.8621,3.8668,3.8708,3.8747,3.8709,3.8738,3.8773,3.8828,3.885,3.8889,3.8951,3.8999,3.9003,3.9047,3.9084,3.9069,3.9097,3.9092,3.9095,3.8944,3.8921,3.9108,3.9108,3.9108,3.9108,3.9108,3.9108,3.8721,3.8804,3.8796,3.8886,3.8895,3.8954,3.8973,3.8997,3.9014,3.9084,3.9123,3.9125,3.9139,3.9183,3.9225,3.9224,3.9241,3.9275,3.9268,3.9126,3.9106,3.9087,3.9065,3.928,3.928,3.9415,3.9416,3.9417]},{"header":{"parameterUnit":"m.s-1","parameterCategory":1,"la1":30.2991,"la2":30.254,"lo1":-89.0895,"lo2":-89.0444,"dy":0.0017,"dx":0.0017,"nx":28,"ny":28,"refTime":"2024-07-20T21:00:00:Z","depth":0,"parameterNumber":3,"parameterNumberName":"V-component_of_WINDS"},"data":[0,0,0,0,0,0,0,0,0,0,0,0,0,0,0,0,0,0,0,0,0,0,0,0,0,0,0,0,0,0,0,0,0,0,0,0,0,0,0,0,0,0,0,0,0,0,0,0,0,0,0,0,0,0,0,0,0,0,2.6071,2.6072,0,2.6193,2.6195,2.6196,2.618,2.6178,2.6176,2.6174,2.6299,2.6304,2.631,0,0,0,0,0,0,0,0,0,0,0,0,0,2.5823,2.5828,2.6071,2.6073,2.6074,2.6193,2.6195,2.6196,2.6181,2.6178,2.6176,2.6173,2.6298,2.6304,2.631,0,0,0,0,0,0,0,0,0,0,0,0,0,2.5937,2.5829,2.6071,2.6081,2.6083,2.6193,2.6195,2.6197,2.6181,2.6178,2.6175,2.6172,2.6296,2.6303,2.6311,2.6419,0,0,2.6335,2.6338,0,0,0,0,0,0,0,0,2.593,2.5946,2.6078,2.608,2.6083,2.6168,2.6153,2.6271,2.6182,2.6144,2.6174,2.6171,2.6258,2.6269,2.6298,2.6425,2.643,2.6335,2.634,2.6343,2.6346,0,0,0,0,0,0,0,2.5922,2.594,2.6119,2.6079,2.6083,2.6078,2.6091,2.6175,2.6216,2.6147,2.6146,2.6161,2.6259,2.6291,2.6301,2.6432,2.6335,2.6342,2.6347,2.635,2.6652,2.6656,0,0,0,0,0,0,2.5912,2.5934,2.6115,2.6123,2.5997,2.6085,2.61,2.6144,2.6215,2.6223,2.6163,2.6159,2.6279,2.6292,2.6306,2.6437,2.6343,2.6351,2.6355,2.6649,2.6653,2.6657,0,0,0,0,0,0,2.5907,2.5928,2.6111,2.6028,2.6051,2.6093,2.6143,2.6148,2.618,2.6228,2.6235,2.6188,2.6277,2.6295,2.6391,2.6441,2.6354,2.6361,2.6645,2.665,2.6655,2.67,0,0,0,0,0,0,2.59,2.5927,2.5969,2.6029,2.6056,2.6194,2.6146,2.6152,2.6193,2.619,2.6253,2.6261,2.6276,2.6379,2.6398,2.645,2.6367,2.6641,2.6647,2.6653,2.6694,2.6705,2.6715,0,0,0,0,0,2.5891,2.5976,2.5971,2.5993,2.6109,2.6197,2.6212,2.6228,2.6197,2.624,2.627,2.6259,2.6432,2.6389,2.6411,2.6465,2.6638,2.6646,2.6653,2.6689,2.6703,2.6715,0,0,0,0,0,0,2.5921,2.5985,2.5979,2.6087,2.6137,2.6194,2.6248,2.6243,2.6303,2.6297,2.6314,2.6328,2.6425,2.6455,2.6406,2.6573,2.6531,2.6543,2.6551,2.6565,2.6575,2.6566,2.6374,0,0,0,0,0,2.594,2.6006,2.6058,2.6148,2.6174,2.6207,2.6246,2.6253,2.6306,2.6327,2.6364,2.6416,2.6481,2.6524,2.6588,2.6697,2.6711,2.6745,2.6756,2.6765,2.6776,2.6835,2.6851,2.6682,2.6681,2.6681,0,0,2.598,2.6023,2.6064,2.6155,2.6195,2.6263,2.6225,2.6298,2.6349,2.6338,2.6431,2.646,2.6518,2.6622,2.6669,2.6649,2.6825,2.6775,2.6781,2.6787,2.6845,2.6861,2.6875,2.6687,2.6686,2.6685,0,0,2.6088,2.6128,2.6207,2.6247,2.6307,2.6328,2.6347,2.6405,2.6424,2.6518,2.6511,2.6571,2.6684,2.6725,2.6761,2.6883,2.6875,2.6903,2.696,2.7018,2.7031,2.7043,2.7087,2.7102,2.6913,2.6914,2.6914,0,2.6131,2.6233,2.6248,2.6323,2.6363,2.6355,2.6435,2.6473,2.6551,2.6579,2.6555,2.6696,2.6735,2.6847,2.6877,2.6906,2.6928,2.6897,2.7028,2.704,2.7052,2.7093,2.711,2.6917,2.6916,2.6916,2.6916,0,2.6282,2.6354,2.641,2.6485,2.6531,2.6608,2.6634,2.6679,2.6682,2.6706,2.68,2.6846,2.6918,2.6945,2.695,2.7059,2.7044,2.7024,2.6982,2.7071,2.711,2.7126,2.6921,2.692,2.6919,2.6918,0,0,2.6414,2.6495,2.6516,2.6549,2.6614,2.6669,2.6745,2.6815,2.6854,2.6907,2.6971,2.7066,2.7048,2.7088,2.7097,2.7148,2.7241,2.7122,2.7123,2.7142,2.7364,2.7379,2.7397,2.7236,2.7239,2.7241,2.7359,0,2.6529,2.6663,2.6678,2.6798,2.6864,2.6857,2.6923,2.697,2.6993,2.7052,2.7077,2.7145,2.7116,2.714,2.719,2.7219,2.7286,2.7211,2.7295,2.7298,2.7282,2.7418,2.7434,2.7543,2.7374,2.7377,2.7379,0,2.6681,2.6738,2.6865,2.692,2.6948,2.7007,2.7072,2.7128,2.7181,2.7194,2.7239,2.724,2.7318,2.7272,2.7379,2.7328,2.7363,2.7383,2.7387,2.7396,2.7344,2.743,2.7578,2.7594,2.7403,2.7401,2.74,0,2.6764,2.6873,2.6962,2.6991,2.7058,2.7099,2.7129,2.7178,2.7219,2.7276,2.7303,2.7367,2.7403,2.7453,2.7472,2.7437,2.7578,2.7534,2.7592,2.7591,2.7622,2.762,2.7778,2.7644,2.7644,2.7644,2.7643,0,2.6891,2.6969,2.7001,2.7056,2.7142,2.7158,2.7243,2.7271,2.7314,2.7375,2.7372,2.7429,2.745,2.751,2.7525,2.7611,2.7627,2.764,2.7643,2.7641,2.7639,2.7665,2.7658,2.7648,2.7647,2.7646,2.7646,0,2.6999,2.7024,2.7121,2.7175,2.7191,2.7252,2.7299,2.7352,2.7374,2.745,2.7468,2.7503,2.7573,2.7597,2.7682,2.7692,2.7792,2.7789,2.7775,2.7776,2.7832,2.7826,2.8012,2.8037,2.7886,2.7888,2.7889,0,2.7079,2.7138,2.7199,2.7239,2.727,2.7334,2.7376,2.7393,2.7436,2.75,2.7545,2.7614,2.7671,2.7783,2.7816,2.788,2.7879,2.7939,2.7888,2.7884,2.788,2.7876,2.7882,2.7949,2.795,2.7952,2.7953,0,2.7217,2.7226,2.7286,2.735,2.7399,2.7451,2.75,2.7533,2.7557,2.7606,2.7678,2.7721,2.7807,2.7876,2.7942,2.7972,2.7967,2.7968,2.7985,2.7983,2.7973,2.7979,2.7801,2.7964,2.7963,2.7962,2.7961,2.7961,2.7314,2.7366,2.7416,2.7483,2.7522,2.7568,2.762,2.7648,2.7708,2.778,2.7786,2.7863,2.7913,2.8001,2.8034,2.8094,2.8077,2.8101,2.8108,2.8114,2.8118,2.7962,2.8106,2.8106,2.8105,2.8105,2.8105,0,2.7452,2.7484,2.7545,2.7614,2.7666,2.7656,2.771,2.7754,2.7822,2.7869,2.7924,2.8006,2.8072,2.811,2.8176,2.8217,2.8216,2.8234,2.8231,2.8238,2.8129,2.8108,2.8233,2.8233,2.8233,2.8233,2.8233,2.8233,2.753,2.7618,2.7633,2.7739,2.777,2.7846,2.7877,2.792,2.7957,2.8049,2.8104,2.8127,2.8171,2.824,2.83,2.8309,2.8334,2.8353,2.8361,2.8259,2.8246,2.8233,2.8214,2.8359,2.8359,2.8465,2.8466,2.8466]}]]